Weather History for KLOZ - September, 2012

Change the Weather History Date:

Sunday, September 30, 2012

  Actual Average Record
Temperature  
Mean Temperature 60 °F 63 °F  
Max Temperature 72 °F 75 °F 87 °F (1971)
Min Temperature 48 °F 51 °F 34 °F (1967)
Degree Days  
Heating Degree Days 5 4  
Month to date heating degree days 63 44  
Since 1 July heating degree days 63 47  
Cooling Degree Days 0 2  
Month to date cooling degree days 104 143  
Year to date cooling degree days 1222 1167  
Growing Degree Days 10 (Base 50)    
Moisture  
Dew Point 52 °F    
Average Humidity 74    
Maximum Humidity 100    
Minimum Humidity 47    
Precipitation  
Precipitation 0.00 in 0.11 in 1.15 in (1955)
Month to date precipitation 8.42 3.37  
Year to date precipitation 36.42 36.05  
Sea Level Pressure  
Sea Level Pressure 29.92 in    
Wind  
Wind Speed 1 mph (SW)    
Max Wind Speed 8 mph    
Max Gust Speed 10 mph    
Visibility 5 miles    
Events Fog    
T = Trace of Precipitation, MM = Missing Value Source: NWS Daily Summary

Daily Weather History Graph

Daily Weather History Graph

Search for Another Location

Airport or City:

Trip Planner

Search our weather history database for the weather conditions in past years. The results will help you decide how hot, cold, wet, or windy it might be!

Date:

Astronomy

Sep. 30, 2012 Rise Set
Actual Time 7:31 AM EDT 7:20 PM EDT
Civil Twilight 7:05 AM EDT 7:46 PM EDT
Nautical Twilight 6:35 AM EDT 8:16 PM EDT
Astronomical Twilight 6:04 AM EDT 8:46 PM EDT
Moon 7:26 PM EDT (9/30) 7:59 AM EDT (9/30)
Length of Visible Light 12h 40m
Length of Day
11h 49m
Full, 100% of the Moon is Illuminated
Sep 30
Full
Oct 8
Last Quarter
Oct 15
New
Oct 21
First Quarter
Oct 29
Full

Hourly Weather History & Observations

Time (EDT) Temp. Dew Point Humidity Pressure Visibility Wind Dir Wind Speed Gust Speed Precip Events Conditions
12:53 AM 52.0 °F 51.1 °F 97% 29.97 in 2.5 mi Calm Calm - N/A   Clear
1:00 AM 51.8 °F 51.8 °F 100% 29.98 in 1.8 mi Calm Calm - N/A   Partly Cloudy
1:14 AM 51.8 °F 51.8 °F 100% 29.98 in 0.2 mi Calm Calm - N/A Fog Fog
1:53 AM 51.1 °F 51.1 °F 100% 29.96 in 0.2 mi Calm Calm - 0.01 in Fog Fog
2:53 AM 51.1 °F 50.0 °F 96% 29.96 in 0.2 mi Calm Calm - N/A Fog Fog
3:53 AM 50.0 °F 48.9 °F 96% 29.94 in 0.8 mi Calm Calm - N/A   Overcast
3:58 AM 50.0 °F 48.2 °F 94% 29.96 in 2.0 mi Calm Calm - N/A   Overcast
4:15 AM 50.0 °F 48.2 °F 94% 29.96 in 0.8 mi Calm Calm - N/A   Mist
4:53 AM 48.9 °F 48.0 °F 97% 29.94 in 1.0 mi Calm Calm - N/A   Mist
5:05 AM 48.2 °F 48.2 °F 100% 29.95 in 0.5 mi Calm Calm - N/A Fog Fog
5:53 AM 48.9 °F 48.0 °F 97% 29.94 in 0.2 mi Calm Calm - N/A Fog Fog
6:53 AM 48.0 °F 48.0 °F 100% 29.94 in 0.2 mi Calm Calm - N/A Fog Fog
7:53 AM 48.0 °F 48.0 °F 100% 29.94 in 0.2 mi Calm Calm - N/A Fog Fog
8:53 AM 48.0 °F 48.0 °F 100% 29.94 in 0.2 mi Calm Calm - N/A Fog Fog
9:53 AM 51.1 °F 51.1 °F 100% 29.94 in 0.2 mi Calm Calm - N/A Fog Fog
10:23 AM 53.6 °F 53.6 °F 100% 29.96 in 1.5 mi Calm Calm - N/A   Overcast
10:28 AM 53.6 °F 53.6 °F 100% 29.96 in 3.0 mi Calm Calm - N/A   Overcast
10:53 AM 55.0 °F 54.0 °F 96% 29.95 in 8.0 mi South 3.5 mph - N/A   Overcast
11:13 AM 55.4 °F 55.4 °F 100% 29.96 in 10.0 mi Calm Calm - N/A   Scattered Clouds
11:53 AM 64.0 °F 54.0 °F 70% 29.93 in 10.0 mi SW 3.5 mph - N/A   Clear
12:53 PM 68.0 °F 55.0 °F 63% 29.91 in 10.0 mi Variable 3.5 mph - N/A   Clear
1:53 PM 69.1 °F 53.1 °F 57% 29.88 in 10.0 mi Variable 4.6 mph - N/A   Clear
2:53 PM 69.1 °F 51.1 °F 53% 29.86 in 10.0 mi West 3.5 mph - N/A   Clear
3:53 PM 71.1 °F 50.0 °F 47% 29.85 in 10.0 mi WSW 3.5 mph - N/A   Clear
4:53 PM 70.0 °F 48.9 °F 47% 29.85 in 10.0 mi SW 3.5 mph - N/A   Clear
5:53 PM 68.0 °F 53.1 °F 59% 29.85 in 10.0 mi Calm Calm - N/A   Clear
6:53 PM 64.9 °F 57.0 °F 75% 29.86 in 10.0 mi Calm Calm - N/A   Clear
7:53 PM 63.0 °F 57.9 °F 84% 29.86 in 10.0 mi Calm Calm - N/A   Clear
8:53 PM 60.1 °F 57.0 °F 90% 29.86 in 10.0 mi Calm Calm - N/A   Clear
9:53 PM 60.1 °F 57.0 °F 90% 29.86 in 10.0 mi Calm Calm - N/A   Clear
10:53 PM 59.0 °F 57.0 °F 93% 29.87 in 9.0 mi Calm Calm - N/A   Clear
11:53 PM 57.9 °F 57.0 °F 97% 29.86 in 6.0 mi Calm Calm - N/A   Clear